Location: Clinton NY
(43.0598°N, 75.3602°W)
Time: 17:59:38
(UTC-04:00)

Amateur Radio Satellites - All Passes

Search period start: 20 September 2014 17:29
Search period end: 21 September 2014 17:29
Location: Clinton NY, 43.0598°N, 75.3602°W

Satellite Date Start Highest point End Downlink Frequencies (MHz)
Time Altitude Azimuth
JAS-2 20 Sep 17:41:50 17:46:58 58° 72° (ENE) 17:52:04 435.800 - 435.900 CW/SSB, 435.910 FM
Uosat F 20 Sep 18:01:34 18:04:07 14° 270° (W) 18:06:41 435.120 FM
MaSat-1 20 Sep 18:19:49 18:23:31 49° 249° (WSW) 18:26:40 437.345 MHz
Saudisat 1A 20 Sep 18:21:36 18:25:38 35° 312° (NW) 18:29:43 436.775 MHz
Hamsat 20 Sep 18:26:07 18:30:24 55° 260° (W) 18:34:41 145.90 MHz
KITSAT 1 20 Sep 18:57:07 19:04:32 42° 110° (ESE) 19:11:59 435.175 FM
OPAL 20 Sep 19:03:03 19:07:30 30° 297° (WNW) 19:11:53 ?
HO-68 20 Sep 19:06:43 19:10:27 15° 50° (NE) 19:14:12 435.675 MHz FM
SO-67 20 Sep 19:13:30 19:16:55 70° 76° (ENE) 19:20:23 435.3500 MHz FM
JAS-2 20 Sep 19:29:21 19:32:34 16° 269° (W) 19:35:46 435.800 - 435.900 CW/SSB, 435.910 FM
STRAND 1 20 Sep 19:45:01 19:50:07 61° 101° (ESE) 19:55:12 ?
Sapphire 20 Sep 19:56:22 20:00:16 20° 41° (NE) 20:04:10 437.095 MHz 1200 baud AX-25 AFSK
AO-40 20 Sep 20:11:27 01:47:57 39° 183° (S) 09:39:10 Beacon 2401.320
PCSat 20 Sep 20:22:51 20:27:37 30° 48° (NE) 20:32:22 145.825 MHz
UKube-1 20 Sep 20:23:15 20:25:26 14° 61° (ENE) 20:27:37 145.840 MHz, 145.915 MHz
HO-68 20 Sep 20:49:51 20:56:55 70° 70° (ENE) 21:04:02 435.675 MHz FM
KITSAT 1 20 Sep 20:52:01 20:59:49 50° 311° (NW) 21:07:40 435.175 FM
STRAND 1 20 Sep 21:25:21 21:28:50 19° 299° (WNW) 21:32:19 ?
FUNcube-1 20 Sep 21:32:56 21:36:18 22° 65° (ENE) 21:39:44 145.950 - 145.970 MHz USB
Oscar 11 20 Sep 21:38:53 21:43:09 57° 73° (ENE) 21:47:28 145.825 FM, Beacon 2401.500 USB
Sapphire 20 Sep 21:38:55 21:44:22 82° 241° (WSW) 21:49:47 437.095 MHz 1200 baud AX-25 AFSK
UKube-1 20 Sep 21:56:49 22:01:07 63° 258° (WSW) 22:05:26 145.840 MHz, 145.915 MHz
PCSat 20 Sep 22:06:03 22:11:12 45° 247° (WSW) 22:16:20 145.825 MHz
SO-50 20 Sep 22:28:27 22:32:53 68° 121° (ESE) 22:37:28 436.795 FM
HO-68 20 Sep 22:39:50 22:45:12 23° 268° (W) 22:50:38 435.675 MHz FM
KITSAT 1 20 Sep 22:52:12 22:57:26 18° 337° (NNW) 23:02:41 435.175 FM
FUNcube-1 20 Sep 23:08:17 23:12:25 39° 263° (W) 23:16:41 145.950 - 145.970 MHz USB
Oscar 11 20 Sep 23:17:29 23:19:42 14° 270° (W) 23:21:56 145.825 FM, Beacon 2401.500 USB
Sapphire 20 Sep 23:25:35 23:26:53 11° 259° (WSW) 23:28:11 437.095 MHz 1200 baud AX-25 AFSK
UOSAT-12 20 Sep 23:59:21 00:03:47 49° 118° (ESE) 00:08:19 437.025 FM, 437.400 FM
SO-50 21 Sep 00:10:38 00:13:56 19° 321° (NW) 00:17:18 436.795 FM
KITSAT 1 21 Sep 00:53:02 00:56:51 14° 8° (N) 01:00:39 435.175 FM
Saudisat 1A 21 Sep 01:07:43 01:11:44 33° 47° (NE) 01:15:43 436.775 MHz
Oscar 16 21 Sep 01:35:35 01:39:20 20° 92° (E) 01:43:03 437.025 USB, Beacon 2401.1428
UOSAT-12 21 Sep 01:40:17 01:44:10 25° 317° (NW) 01:48:07 437.025 FM, 437.400 FM
Oscar 10/S400 21 Sep 02:00:13 03:06:53 35° 230° (SW) 07:29:05 145.825 - 145.975 CW/USB, Beacon 145.810 USB
JAS-1B 21 Sep 02:11:11 02:15:29 22° 92° (E) 02:19:47 435.800 - 435.900 CW/SSB
ITAMSAT 1 21 Sep 02:21:38 02:25:40 22° 93° (E) 02:29:41 435.822 SSB
Uribyol 2 21 Sep 02:25:17 02:29:36 26° 94° (E) 02:33:53 436.500 FM
ISS 21 Sep 02:26:22 02:29:32 43° 140° (SE) 02:32:44 145.800 FM
Oscar 19 21 Sep 02:34:45 02:39:55 68° 102° (ESE) 02:45:01 437.125 CW, 437.150 USB
RS-15 21 Sep 02:42:25 02:49:42 21° 100° (E) 02:56:53 29.354 - 29.394 USB, Beacon 29.352 USB
Saudisat 1A 21 Sep 02:47:23 02:51:16 31° 245° (WSW) 02:55:08 436.775 MHz
KITSAT 1 21 Sep 02:48:43 02:55:32 29° 37° (NE) 03:02:19 435.175 FM
TMSAT-1 21 Sep 02:54:45 02:58:02 16° 90° (E) 03:01:18 436.925 FM
AO-27 21 Sep 02:56:20 03:01:22 47° 99° (E) 03:06:23 436.795 MHz FM
OPAL 21 Sep 03:05:05 03:06:43 11° 53° (NE) 03:08:20 ?
Oscar 16 21 Sep 03:13:58 03:19:00 52° 289° (WNW) 03:23:59 437.025 USB, Beacon 2401.1428
AO-Echo 21 Sep 03:15:11 03:20:03 83° 103° (ESE) 03:25:04 ?
AO-7 21 Sep 03:33:51 03:36:24 12° 85° (E) 03:38:57 29.400 - 29.500 MHz
Gurwin Techsat 1B 21 Sep 03:57:00 04:02:20 81° 104° (ESE) 04:07:39 435.225 FM
ITAMSAT 1 21 Sep 04:00:24 04:05:24 48° 290° (WNW) 04:10:23 435.822 SSB
JAS-1B 21 Sep 04:01:03 04:06:35 49° 291° (WNW) 04:12:03 435.800 - 435.900 CW/SSB
ISS 21 Sep 04:03:17 04:06:20 32° 338° (NNW) 04:09:23 145.800 FM
Uribyol 2 21 Sep 04:04:18 04:09:12 42° 291° (WNW) 04:14:05 436.500 FM
Oscar 19 21 Sep 04:15:27 04:18:42 17° 300° (WNW) 04:21:55 437.125 CW, 437.150 USB
Uosat F 21 Sep 04:27:30 04:31:10 20° 93° (E) 04:34:49 435.120 FM
TMSAT-1 21 Sep 04:33:09 04:38:25 66° 287° (WNW) 04:43:40 436.925 FM
AO-27 21 Sep 04:36:29 04:40:36 24° 297° (WNW) 04:44:42 436.795 MHz FM
OPAL 21 Sep 04:39:30 04:44:40 74° 71° (ENE) 04:49:54 ?
KITSAT 1 21 Sep 04:43:48 04:51:56 85° 240° (WSW) 04:59:59 435.175 FM
RS-15 21 Sep 04:49:16 05:00:19 84° 121° (ESE) 05:11:17 29.354 - 29.394 USB, Beacon 29.352 USB
AO-Echo 21 Sep 04:56:03 04:58:12 13° 300° (WNW) 05:00:22 ?
SO-50 21 Sep 05:19:39 05:22:34 16° 36° (NE) 05:25:30 436.795 FM
AO-7 21 Sep 05:22:28 05:30:43 66° 105° (ESE) 05:38:56 29.400 - 29.500 MHz
STRAND 1 21 Sep 05:26:08 05:28:34 14° 58° (ENE) 05:30:59 ?
Gurwin Techsat 1B 21 Sep 05:38:41 05:41:37 15° 301° (WNW) 05:44:32 435.225 FM
ISS 21 Sep 05:41:20 05:43:45 18° 358° (N) 05:46:11 145.800 FM
Uosat F 21 Sep 06:05:22 06:10:14 50° 290° (WNW) 06:15:04 435.120 FM
Hamsat 21 Sep 06:11:28 06:14:56 24° 94° (E) 06:18:21 145.90 MHz
OPAL 21 Sep 06:21:19 06:24:05 14° 268° (W) 06:26:53 ?
JAS-2 21 Sep 06:32:41 06:38:37 52° 100° (E) 06:45:18 435.800 - 435.900 CW/SSB, 435.910 FM
KITSAT 1 21 Sep 06:41:13 06:46:08 18° 259° (W) 06:51:03 435.175 FM
UOSAT-12 21 Sep 06:49:33 06:51:28 12° 31° (NNE) 06:53:22 437.025 FM, 437.400 FM
SO-50 21 Sep 06:59:04 07:03:54 80° 55° (NE) 07:08:46 436.795 FM
STRAND 1 21 Sep 07:01:56 07:07:02 85° 256° (WSW) 07:12:10 ?
RS-15 21 Sep 07:04:12 07:14:00 36° 328° (NNW) 07:23:52 29.354 - 29.394 USB, Beacon 29.352 USB
AO-7 21 Sep 07:16:00 07:22:57 32° 304° (NW) 07:29:55 29.400 - 29.500 MHz
ISS 21 Sep 07:18:18 07:21:14 28° 19° (NNE) 07:24:10 145.800 FM
Hamsat 21 Sep 07:47:11 07:50:54 30° 291° (WNW) 07:54:35 145.90 MHz
MaSat-1 21 Sep 08:04:52 08:09:41 50° 111° (ESE) 08:14:25 437.345 MHz
SO-67 21 Sep 08:09:02 08:12:30 75° 101° (ESE) 08:15:56 435.3500 MHz FM
JAS-2 21 Sep 08:18:26 08:23:29 29° 295° (WNW) 08:29:01 435.800 - 435.900 CW/SSB, 435.910 FM
HO-68 21 Sep 08:20:48 08:22:07 11° 85° (E) 08:23:26 435.675 MHz FM
UOSAT-12 21 Sep 08:28:00 08:32:40 55° 52° (NE) 08:37:15 437.025 FM, 437.400 FM
SO-50 21 Sep 08:41:31 08:43:51 14° 252° (WSW) 08:46:11 436.795 FM
ISS 21 Sep 08:54:51 08:58:09 61° 217° (SW) 09:01:25 145.800 FM
RS-15 21 Sep 09:22:33 09:30:48 23° 2° (N) 09:39:10 29.354 - 29.394 USB, Beacon 29.352 USB
MaSat-1 21 Sep 09:42:33 09:46:39 25° 308° (NW) 09:50:37 437.345 MHz
UKube-1 21 Sep 09:44:51 09:48:05 20° 94° (E) 09:51:17 145.840 MHz, 145.915 MHz
HO-68 21 Sep 10:03:56 10:11:06 67° 104° (ESE) 10:18:14 435.675 MHz FM
UOSAT-12 21 Sep 10:09:07 10:12:24 19° 250° (WSW) 10:15:40 437.025 FM, 437.400 FM
Sapphire 21 Sep 10:43:37 10:44:17 10° 101° (E) 10:44:57 437.095 MHz 1200 baud AX-25 AFSK
FUNcube-1 21 Sep 10:56:18 11:00:38 38° 97° (E) 11:04:53 145.950 - 145.970 MHz USB
Oscar 11 21 Sep 11:01:35 11:05:57 79° 284° (WNW) 11:10:16 145.825 FM, Beacon 2401.500 USB
PCSat 21 Sep 11:06:53 11:10:43 20° 106° (ESE) 11:14:35 145.825 MHz
UKube-1 21 Sep 11:20:21 11:24:25 39° 290° (WNW) 11:28:28 145.840 MHz, 145.915 MHz
RS-15 21 Sep 11:37:09 11:47:21 40° 36° (NE) 11:57:49 29.354 - 29.394 USB, Beacon 29.352 USB
HO-68 21 Sep 11:52:31 11:58:15 27° 302° (WNW) 12:03:59 435.675 MHz FM
Oscar 19 21 Sep 12:16:05 12:19:01 15° 59° (ENE) 12:21:57 437.125 CW, 437.150 USB
Sapphire 21 Sep 12:21:22 12:26:45 79° 118° (ESE) 12:32:12 437.095 MHz 1200 baud AX-25 AFSK
FUNcube-1 21 Sep 12:33:08 12:36:47 23° 294° (WNW) 12:40:23 145.950 - 145.970 MHz USB
AO-27 21 Sep 12:40:26 12:41:57 11° 56° (NE) 12:43:29 436.795 MHz FM
PCSat 21 Sep 12:48:18 12:53:38 61° 304° (WNW) 12:59:02 145.825 MHz
Oscar 16 21 Sep 12:53:12 12:57:47 33° 67° (ENE) 13:02:23 437.025 USB, Beacon 2401.1428
AO-Echo 21 Sep 12:53:24 12:55:53 14° 61° (ENE) 12:58:21 ?
JAS-1B 21 Sep 12:56:15 13:02:59 30° 63° (ENE) 13:08:51 435.800 - 435.900 CW/SSB
ITAMSAT 1 21 Sep 13:40:26 13:45:09 37° 68° (ENE) 13:49:53 435.822 SSB
Gurwin Techsat 1B 21 Sep 13:41:15 13:44:59 20° 61° (ENE) 13:48:42 435.225 FM
Uribyol 2 21 Sep 13:43:58 13:48:49 42° 69° (ENE) 13:53:41 436.500 FM
RS-15 21 Sep 13:49:38 14:00:43 76° 241° (WSW) 14:12:15 29.354 - 29.394 USB, Beacon 29.352 USB
Oscar 19 21 Sep 13:52:31 13:57:42 78° 257° (WSW) 14:02:56 437.125 CW, 437.150 USB
Sapphire 21 Sep 14:06:52 14:10:49 20° 318° (NW) 14:14:47 437.095 MHz 1200 baud AX-25 AFSK
AO-27 21 Sep 14:15:26 14:20:35 78° 74° (ENE) 14:25:47 436.795 MHz FM
TMSAT-1 21 Sep 14:16:05 14:20:33 29° 65° (ENE) 14:25:03 436.925 FM
AO-Echo 21 Sep 14:29:24 14:34:07 69° 258° (WSW) 14:38:48 ?
Oscar 16 21 Sep 14:32:26 14:37:05 33° 264° (W) 14:41:46 437.025 USB, Beacon 2401.1428
AO-7 21 Sep 14:32:39 14:38:44 23° 51° (NE) 14:44:49 29.400 - 29.500 MHz
PCSat 21 Sep 14:35:36 14:38:13 13° 325° (NW) 14:40:50 145.825 MHz
JAS-1B 21 Sep 14:44:52 14:53:17 62° 258° (WSW) 15:00:20 435.800 - 435.900 CW/SSB
Gurwin Techsat 1B 21 Sep 15:19:15 15:24:28 60° 259° (W) 15:29:44 435.225 FM
ITAMSAT 1 21 Sep 15:20:17 15:24:41 28° 265° (W) 15:29:09 435.822 SSB
Uribyol 2 21 Sep 15:24:14 15:28:26 25° 266° (W) 15:32:40 436.500 FM
Uosat F 21 Sep 15:41:33 15:45:54 31° 66° (ENE) 15:50:16 435.120 FM
TMSAT-1 21 Sep 15:55:25 16:00:19 39° 263° (W) 16:05:16 436.925 FM
AO-27 21 Sep 15:58:20 16:00:42 13° 271° (W) 16:03:05 436.795 MHz FM
RS-15 21 Sep 16:04:38 16:11:09 18° 262° (W) 16:17:51 29.354 - 29.394 USB, Beacon 29.352 USB
MaSat-1 21 Sep 16:22:02 16:23:40 12° 43° (NE) 16:25:13 437.345 MHz
AO-7 21 Sep 16:22:11 16:30:31 89° 251° (WSW) 16:38:52 29.400 - 29.500 MHz
JAS-2 21 Sep 16:48:33 16:52:18 21° 62° (ENE) 16:56:04 435.800 - 435.900 CW/SSB, 435.910 FM
OPAL 21 Sep 16:49:50 16:53:13 18° 93° (E) 16:56:34 ?
Saudisat 1A 21 Sep 16:54:01 16:58:17 53° 119° (ESE) 17:02:35 436.775 MHz
Hamsat 21 Sep 17:05:59 17:09:15 21° 66° (ENE) 17:12:31 145.90 MHz
Uosat F 21 Sep 17:20:10 17:24:37 32° 263° (W) 17:29:07 435.120 FM
KITSAT 1 21 Sep 17:25:34 17:26:42 10° 96° (E) 17:27:50 435.175 FM
